Regional Weather Roundup
Issued by NWS State College, PA

Home | Current Version | Previous Version | Text Only | Print | Product List | Glossary On
Versions: 1 2 3 4 5 6 7 8 9 10 11 12 13 14 15 16 17 18 19 20 21 22 23 24 25 26 27 28 29 30 31 32 33 34 35 36 37 38 39 40 41 42 43 44 45 46 47 48 49 50
000
ASUS41 KCTP 231903
RWRCTP

REGIONAL WEATHER ROUNDUP
NATIONAL WEATHER SERVICE STATE COLLEGE PA
300 PM EDT SUN JUL 23 2017

Note: "fair" indicates few or no clouds below 12,000 feet with no
significant weather and/or obstructions to visibility.

* = STATION THAT DOES NOT REPORT PRECIPITATION /E.G. RAIN...SNOW...ETC/
    THUNDER OR FOG.

PAZ002>004-007>009-013>016-020>023-029>032-232000-
WESTERN PENNSYLVANIA

CITY           SKY/WX    TMP DP  RH WIND       PRES   REMARKS
ERIE           MOSUNNY   80  69  69 VRB3      29.78S
MEADVILLE      NOT AVBL
FRANKLIN*      CLOUDY    81  66  61 SW9       29.81F
NEW CASTLE     FAIR      83  71  67 VRB7      29.79F
BEAVER COUNTY  PTSUNNY   81  72  74 W6        29.80F
BUTLER*        CLOUDY    79  70  73 S10       29.80F
PITTSBURGH INT CLOUDY    74  69  85 SW6       29.80F
PITTSBURGH     LGT RAIN  75  68  78 CALM      29.81F
INDIANA*       PTSUNNY   75  73  94 SW13      29.85S
LATROBE        LGT RAIN  73  73 100 SW14      29.85F
WASHINGTON CO* CLOUDY    72  68  88 SW5       29.84R
$$

PAZ004>006-010>012-017>019-024>028-033>037-041-042-045-046-049>053-232000-
CENTRAL PENNSYLVANIA

CITY           SKY/WX    TMP DP  RH WIND       PRES   REMARKS
BRADFORD       MOSUNNY   81  66  60 W8        29.82F
DUBOIS         PTSUNNY   79  68  69 SW10      29.81F
CLEARFIELD     PTSUNNY   85  69  58 SW10      29.80F
JOHNSTOWN      PTSUNNY   78  69  73 W10       29.86F
ALTOONA        MOSUNNY   84  69  60 W7        29.82S
STATE COLLEGE  MOSUNNY   84  70  61 W9        29.79F
WILLIAMSPORT   CLOUDY    81  72  74 E7        29.76F
SELINSGROVE    PTSUNNY   83  74  74 CALM      29.77F
FT INDIANTOWN  MOSUNNY   82  73  73 NE7       29.78F
CAPITAL CITY   MOSUNNY   87  71  58 VRB5      29.76F
HARRISBURG     PTSUNNY   86  74  67 SE3       29.75F
YORK           MOSUNNY   88  72  58 CALM      29.76F
$$

PAZ038>040-043-044-047-048-054-055-060>062-067>071-232000-
EASTERN PENNSYLVANIA

CITY           SKY/WX    TMP DP  RH WIND       PRES   REMARKS
SCRANTON       CLOUDY    77  65  66 CALM      29.82F
MOUNT POCONO   CLOUDY    72  66  81 SE7       29.88S
ALLENTOWN      PTSUNNY   84  67  56 E6        29.80F
QUAKERTOWN*    PTCLDY    81  68  65 SE7       29.82F
READING        MOSUNNY   82  72  71 CALM      29.78F
LANCASTER      CLOUDY    87  73  62 NE6       29.77F
COATESVILLE    PTCLDY    82  72  69 CALM      29.82S
POTTSTOWN      PTSUNNY   80  71  74 NE7       29.81F
BLUE BELL      MOSUNNY   79  72  78 E7        29.81F
DOYLESTOWN     MOSUNNY   79  67  66 VRB3      29.80F
WILLOW GROVE   NOT AVBL
NORTH PHILA    MOSUNNY   83  69  62 E12       29.81F
PHILADELPHIA   PTSUNNY   87  71  58 E10       29.78F
$$




USA.gov is the U.S. government's official web portal to all federal, state and local government web resources and services.